Home > Weather > Kolonia > Past weeks

Flag for Micronesia Past Weather in Kolonia, Pohnpei, Micronesia — Yesterday and Last 2 Weeks

Now
82 °F

More clouds than sun.


Feels Like: 88 °F
Forecast: 78 / 87 °F
Wind: 7 mph from West

Location: Pohnpei

Current Time: Jul 29, 2016 at 5:02:08 PM

Latest Report: Jul 29, 2016 at 3:51 PM


Visibility: 15 mi

Pressure: 29.80 "Hg

Humidity: 84%

Dew Point: 76 °F

Location of KoloniaLocation

Past Weather in Kolonia — Graph

°F

Kolonia Temperature Yesterday

Maximum temperature yesterday: 88 °F (at 1:52 PM)
Minimum temperature yesterday: 76 °F (at 5:52 AM)
Average temperature yesterday: 82 °F

High & Low Weather Summary for the Past Weeks

 TemperatureHumidityPressure
High90 °F (Jul 15, 11:55 AM)98% (Jul 26, 1:52 AM)29.93 "Hg (Jul 26, 1:52 AM)
Low73 °F (Jul 23, 8:57 AM)62% (Jul 28, 4:50 PM)29.74 "Hg (Jul 23, 3:52 PM)
Average81 °F85%29.83 "Hg
* Reported Jul 14 3:50 PM — Jul 29 3:51 PM, Kolonia, Weather by CustomWeather, © 2016

Note: Actual official high and low records may vary slightly from our data, if they occured in-between our weather recording intervals... More about our weather records

Advertising

Kolonia Weather History for the Previous 24 Hours

Scroll right to see more
 ConditionsComfort  
Time TempWeatherWind HumidityBarometerVisibility
3:51 PM
Fri, Jul 29
82 °FMore clouds than sun.7 mph84%29.80 "Hg15 mi
2:50 PM85 °FSprinkles. Cloudy.3 mph75%29.78 "Hg15 mi
1:50 PM86 °FMostly cloudy.3 mph78%29.81 "Hg15 mi
12:50 PM83 °FMostly cloudy.3 mph82%29.83 "Hg14 mi
11:50 AM88 °FSprinkles. Mostly cloudy.6 mph62%29.85 "Hg8 mi
10:54 AM85 °FMore clouds than sun.6 mph72%29.86 "Hg15 mi
9:50 AM86 °FMore clouds than sun.5 mph73%29.86 "Hg15 mi
8:50 AM85 °FMore clouds than sun.3 mph82%29.86 "Hg15 mi
7:52 AM78 °FBroken clouds.7 mph90%29.87 "Hg15 mi
6:50 AM76 °FScattered clouds.3 mph94%29.84 "Hg15 mi
5:53 AM75 °FPassing clouds.3 mph95%29.83 "Hg15 mi
4:53 AM75 °FPassing clouds.2 mph95%29.83 "Hg15 mi
3:52 AM75 °FPassing clouds.2 mph95%29.82 "Hg15 mi
2:52 AM76 °FOvercast.2 mph94%29.81 "Hg15 mi
1:54 AM76 °FSprinkles. Overcast.2 mph93%29.83 "Hg15 mi
12:52 AM78 °FSprinkles. Mostly cloudy.3 mph90%29.83 "Hg13 mi
11:50 PM
Thu, Jul 28
78 °FPartly cloudy.3 mph89%29.85 "Hg15 mi
10:50 PM78 °FPartly cloudy.3 mph90%29.86 "Hg15 mi
9:50 PM78 °FPartly cloudy.3 mph90%29.86 "Hg15 mi
8:50 PM79 °FPartly cloudy.3 mph87%29.84 "Hg15 mi
7:50 PM80 °FPassing clouds.3 mph86%29.83 "Hg15 mi
6:50 PM83 °FMostly cloudy.3 mph74%29.81 "Hg15 mi
5:50 PM84 °FCloudy.5 mph73%29.80 "Hg15 mi
Weather by CustomWeather, © 2016

See weather overviewHow to use our weather pages